Tulsa, OK

3:45 AM CDT on June 24, 2017 (GMT -0500)
Tulsa International

Weather History for KTUL - January, 2015

Change the Weather History Date:

Monday, January 5, 2015

  Actual Average Record
Temperature  
Mean Temperature 29 °F 37 °F  
Max Temperature 42 °F 47 °F 73 °F (1984)
Min Temperature 15 °F 28 °F -7 °F (1947)
Degree Days  
Heating Degree Days 36 28  
Month to date heating degree days 166 140  
Since 1 July heating degree days 1559 1568  
Moisture  
Dew Point 12 °F    
Average Humidity 56    
Maximum Humidity 80    
Minimum Humidity 32    
Precipitation  
Precipitation 0.00 in 0.05 in 1.28 in (1929)
Month to date precipitation 0.38 0.28  
Year to date precipitation 0.38 0.28  
Sea Level Pressure  
Sea Level Pressure 30.53 in    
Wind  
Wind Speed 8 mph (SSE)    
Max Wind Speed 26 mph    
Max Gust Speed 32 mph    
Visibility 10 miles    
Events      
T = Trace of Precipitation, MM = Missing Value Source: NWS Daily Summary

Daily Weather History Graph

Daily Weather History Graph

Search for Another Location

Airport or City:

Trip Planner

Search our weather history database for the weather conditions in past years. The results will help you decide how hot, cold, wet, or windy it might be!

Date:

Astronomy

Jan. 05, 2015 Rise Set
Actual Time 7:35 AM CST 5:22 PM CST
Civil Twilight 7:06 AM CST 5:51 PM CST
Nautical Twilight 6:34 AM CST 6:23 PM CST
Astronomical Twilight 6:03 AM CST 6:54 PM CST
Moon 6:15 PM CST (1/5) 7:35 AM CST (1/5)
Length of Visible Light 10h 44m
Length of Day
9h 47m
Full, 100% of the Moon is Illuminated
Jan 5
Full
Jan 13
Last Quarter
Jan 20
New
Jan 26
First Quarter
Feb 3
Full

Hourly Weather History & Observations

Time (CST) Temp. Windchill Dew Point Humidity Pressure Visibility Wind Dir Wind Speed Gust Speed Precip Events Conditions
12:53 AM 18.0 °F 12.7 °F 8.1 °F 65% 30.76 in 10.0 mi North 3.5 mph - N/A   Clear
1:53 AM 16.0 °F 7.4 °F 10.0 °F 77% 30.77 in 10.0 mi North 5.8 mph - N/A   Clear
2:53 AM 16.0 °F 8.8 °F 10.0 °F 77% 30.79 in 10.0 mi NNW 4.6 mph - N/A   Clear
3:53 AM 15.1 °F 6.4 °F 10.9 °F 84% 30.79 in 10.0 mi NNW 5.8 mph - N/A   Partly Cloudy
4:53 AM 17.1 °F 10.0 °F 10.9 °F 77% 30.77 in 10.0 mi North 4.6 mph - N/A   Clear
5:53 AM 17.1 °F 10.0 °F 9.0 °F 71% 30.76 in 10.0 mi NNE 4.6 mph - N/A   Clear
6:53 AM 16.0 °F - 9.0 °F 74% 30.74 in 10.0 mi Calm Calm - N/A   Clear
7:53 AM 17.1 °F - 8.1 °F 68% 30.74 in 10.0 mi Calm Calm - N/A   Clear
8:53 AM 19.0 °F 11.1 °F 10.9 °F 71% 30.73 in 10.0 mi ESE 5.8 mph - N/A   Clear
9:53 AM 24.1 °F 14.4 °F 9.0 °F 53% 30.70 in 10.0 mi SSE 9.2 mph - N/A   Clear
10:53 AM 28.0 °F 21.7 °F 9.0 °F 45% 30.67 in 10.0 mi SSE 5.8 mph - N/A   Partly Cloudy
11:53 AM 30.9 °F 21.2 °F 7.0 °F 37% 30.58 in 10.0 mi SSE 12.7 mph - N/A   Partly Cloudy
12:53 PM 35.1 °F 26.4 °F 10.0 °F 35% 30.49 in 10.0 mi South 12.7 mph - N/A   Scattered Clouds
1:53 PM 37.0 °F 28.9 °F 12.0 °F 36% 30.45 in 10.0 mi SSE 12.7 mph - N/A   Scattered Clouds
2:53 PM 39.0 °F 30.3 °F 12.0 °F 33% 30.38 in 10.0 mi South 16.1 mph - N/A   Scattered Clouds
3:53 PM 41.0 °F 31.6 °F 14.0 °F 33% 30.29 in 10.0 mi South 20.7 mph 29.9 mph N/A   Scattered Clouds
4:53 PM 41.0 °F 32.2 °F 14.0 °F 33% 30.28 in 10.0 mi South 18.4 mph - N/A   Scattered Clouds
5:53 PM 39.9 °F 31.4 °F 14.0 °F 35% 30.29 in 10.0 mi South 16.1 mph - N/A   Scattered Clouds
6:53 PM 39.0 °F 34.0 °F 15.1 °F 38% 30.31 in 10.0 mi SSW 6.9 mph - N/A   Scattered Clouds
7:53 PM 36.0 °F 31.1 °F 16.0 °F 44% 30.32 in 10.0 mi SSW 5.8 mph - N/A   Scattered Clouds
8:53 PM 34.0 °F 28.8 °F 17.1 °F 50% 30.34 in 10.0 mi South 5.8 mph - N/A   Scattered Clouds
9:53 PM 33.1 °F 26.1 °F 19.0 °F 56% 30.35 in 10.0 mi South 8.1 mph - N/A   Scattered Clouds
10:53 PM 35.1 °F 29.3 °F 19.9 °F 54% 30.34 in 10.0 mi South 6.9 mph - N/A   Partly Cloudy
11:53 PM 32.0 °F 28.7 °F 19.9 °F 61% 30.35 in 10.0 mi ESE 3.5 mph - N/A   Partly Cloudy